Location: Comstock Ranch
(38.0499°N, 120.2627°W)
Time: 22:43:00
(UTC+00:00)

Cosmos 1825 Rocket - Pass Details

Date: 08 September 2024
Orbit: 599 x 626 km, 82.5° (Epoch: 12 October)

Event Time Altitude Azimuth Distance (km) Brightness Sun altitude
Rises 12:28:03 0° 357° (N) 2,917 7.2 -14.1°
Reaches altitude 10° 12:30:20 10° 1° (N) 2,003 6.4 -13.7°
Maximum altitude 12:34:42 57° 81° (E) 734 4.3 -12.9°
Drops below altitude 10° 12:39:00 10° 160° (SSE) 1,974 6.2 -12.1°
Sets 12:41:15 0° 164° (SSE) 2,870 7.0 -11.6°
